MEV-1

Last updated on Nov. 8, 2019, 12:02 a.m. UTC

1 44625U 19067B   19311.62500000 -.00000175  00000-0  00000+0 0  9995
2 44625   6.9471 176.3167 4640588 184.3083 265.6850  0.87853497   253
UTC
Height (km)
Latitude
Longitude
Inclination
Orbital Period
UTC large
Height (km)
Speed (km/s)
/
Latitude / Longitude
Inclination (degrees)
Orbital Period (minutes)
Azimuth
Elevation
Range (km)
Doppler Factor
iOS Compass Heading
iOS Angle

Next 30 passes for location: Hong Kong

Rise time Rise Azimuth (degrees) Set time Set Azimuth (degrees) Duration Max altitude (degrees)

No matching passes for this satellites